When you browse on this site, cookies collect data to enhance your experience and personalize the content and advertising you see.
Visit our Privacy Policy to learn more. By continuing to use the site, you agree to this use of cookies and data.
  • In Hungary
  • List of Countries
  • For 7 days
  • Water Temperature
  • Satellite Maps
  • Weather Map
  • News
  • Weather Widgets
  • user-avatar
    Login

    Hourly Weather Slepetovo

    Today, 19 May, Sunday

    Time Temperature Precipitation Wind Pressure Humidity
    00:00 +11°C° 0 mm 1 mps 745 mmHg 77%
    01:00 +10°C° 0 mm 2 mps 745 mmHg 80%
    02:00 +9°C° 0 mm 2 mps 744 mmHg 85%
    03:00 +10°C° 0 mm 1 mps 745 mmHg 82%
    04:00 +10°C° 0 mm 1 mps 745 mmHg 80%
    05:00 +11°C° 0 mm 1 mps 745 mmHg 77%
    06:00 +13°C° 0 mm 1 mps 745 mmHg 69%
    07:00 +15°C° 0 mm 1 mps 745 mmHg 60%
    08:00 +19°C° 0 mm 1 mps 745 mmHg 50%
    09:00 +20°C° 0 mm 1 mps 745 mmHg 47%
    10:00 +21°C° 0 mm 1 mps 745 mmHg 44%
    11:00 +22°C° 0 mm 1 mps 746 mmHg 41%
    12:00 +23°C° 0 mm 2 mps 745 mmHg 40%
    13:00 +23°C° 0 mm 2 mps 745 mmHg 40%
    14:00 +23°C° 0 mm 2 mps 745 mmHg 39%
    15:00 +23°C° 0 mm 2 mps 745 mmHg 42%
    16:00 +23°C° 0 mm 2 mps 745 mmHg 44%
    17:00 +21°C° 0 mm 2 mps 745 mmHg 47%
    18:00 +20°C° 0 mm 1 mps 745 mmHg 55%
    19:00 +18°C° 0 mm 1 mps 745 mmHg 63%
    20:00 +15°C° 0 mm 1 mps 745 mmHg 71%
    21:00 +14°C° 0 mm 1 mps 745 mmHg 74%
    22:00 +12°C° 0 mm 0 mps 745 mmHg 77%
    23:00 +11°C° 0 mm 0 mps 746 mmHg 79%

    Tomorrow, 20 May, Monday

    Time Temperature Precipitation Wind Pressure Humidity
    00:00 +11°C° 0 mm 0 mps 746 mmHg 81%
    01:00 +10°C° 0 mm 0 mps 746 mmHg 83%
    02:00 +11°C° 0 mm 1 mps 746 mmHg 85%
    03:00 +11°C° 0 mm 1 mps 747 mmHg 84%
    04:00 +11°C° 0 mm 1 mps 747 mmHg 83%
    05:00 +12°C° 0 mm 1 mps 747 mmHg 81%
    06:00 +14°C° 0 mm 1 mps 747 mmHg 73%
    07:00 +16°C° 0 mm 1 mps 747 mmHg 65%
    08:00 +19°C° 0 mm 1 mps 747 mmHg 56%
    09:00 +21°C° 0 mm 1 mps 747 mmHg 51%
    10:00 +23°C° 0 mm 1 mps 747 mmHg 46%
    11:00 +24°C° 0 mm 1 mps 747 mmHg 40%
    12:00 +25°C° 0 mm 1 mps 747 mmHg 39%
    13:00 +25°C° 0 mm 1 mps 747 mmHg 37%
    14:00 +25°C° 0 mm 1 mps 747 mmHg 36%
    15:00 +25°C° 0 mm 1 mps 746 mmHg 40%
    16:00 +24°C° 0 mm 1 mps 746 mmHg 43%
    17:00 +23°C° 0 mm 1 mps 746 mmHg 47%
    18:00 +21°C° 0 mm 1 mps 746 mmHg 52%
    19:00 +19°C° 0 mm 1 mps 746 mmHg 57%
    20:00 +16°C° 0 mm 2 mps 746 mmHg 62%
    21:00 +16°C° 0 mm 2 mps 746 mmHg 64%
    22:00 +15°C° 0 mm 2 mps 746 mmHg 66%
    23:00 +14°C° 0 mm 2 mps 746 mmHg 68%

    Day after tomorrow, 21 May, Tuesday

    Time Temperature Precipitation Wind Pressure Humidity
    00:00 +14°C° 0 mm 2 mps 746 mmHg 71%
    01:00 +13°C° 0 mm 2 mps 746 mmHg 75%
    02:00 +13°C° 0 mm 2 mps 746 mmHg 78%
    03:00 +13°C° 0 mm 2 mps 745 mmHg 78%
    04:00 +14°C° 0 mm 2 mps 745 mmHg 78%
    05:00 +14°C° 0 mm 2 mps 745 mmHg 78%
    06:00 +16°C° 0 mm 2 mps 745 mmHg 71%
    07:00 +18°C° 0 mm 3 mps 745 mmHg 65%
    08:00 +20°C° 0 mm 3 mps 745 mmHg 58%
    09:00 +21°C° 0 mm 3 mps 745 mmHg 55%
    10:00 +22°C° 0 mm 3 mps 744 mmHg 51%
    11:00 +23°C° 0 mm 4 mps 744 mmHg 48%
    12:00 +23°C° 0 mm 4 mps 744 mmHg 46%
    13:00 +23°C° 0 mm 4 mps 743 mmHg 44%
    14:00 +25°C° 0 mm 4 mps 743 mmHg 42%
    15:00 +24°C° 0 mm 3 mps 743 mmHg 43%
    16:00 +24°C° 0 mm 3 mps 742 mmHg 44%
    17:00 +22°C° 0 mm 3 mps 742 mmHg 45%
    18:00 +20°C° 0 mm 2 mps 741 mmHg 52%
    19:00 +19°C° 0 mm 2 mps 741 mmHg 59%
    20:00 +17°C° 0 mm 2 mps 741 mmHg 66%
    21:00 +16°C° 0 mm 2 mps 741 mmHg 68%
    22:00 +16°C° 0 mm 2 mps 741 mmHg 71%
    23:00 +15°C° 0 mm 2 mps 741 mmHg 73%

    22 May, Wednesday

    Time Temperature Precipitation Wind Pressure Humidity
    00:00 +15°C° 0.1 mm 2 mps 741 mmHg 79%
    01:00 +14°C° 0.1 mm 2 mps 741 mmHg 85%
    02:00 +14°C° 0.1 mm 2 mps 740 mmHg 91%
    03:00 +14°C° 0.4 mm 2 mps 740 mmHg 91%
    04:00 +14°C° 0.4 mm 2 mps 740 mmHg 90%
    05:00 +15°C° 0.4 mm 2 mps 740 mmHg 90%
    06:00 +16°C° 0.5 mm 2 mps 740 mmHg 88%
    07:00 +17°C° 0.5 mm 2 mps 739 mmHg 86%
    08:00 +19°C° 0.5 mm 1 mps 739 mmHg 84%
    09:00 +20°C° 0.8 mm 2 mps 739 mmHg 79%
    10:00 +21°C° 0.8 mm 2 mps 739 mmHg 74%
    11:00 +22°C° 0.8 mm 3 mps 738 mmHg 69%
    12:00 +23°C° 1.4 mm 2 mps 738 mmHg 70%
    13:00 +23°C° 1.4 mm 2 mps 738 mmHg 72%
    14:00 +23°C° 1.4 mm 2 mps 737 mmHg 73%
    15:00 +23°C° 1.3 mm 1 mps 737 mmHg 76%
    16:00 +22°C° 1.3 mm 1 mps 737 mmHg 79%
    17:00 +20°C° 1.3 mm 0 mps 736 mmHg 82%
    18:00 +21°C° 0.3 mm 1 mps 736 mmHg 85%
    19:00 +19°C° 0.3 mm 1 mps 736 mmHg 88%
    20:00 +18°C° 0.3 mm 1 mps 736 mmHg 91%
    21:00 +18°C° 0 mm 1 mps 736 mmHg 91%
    22:00 +16°C° 0 mm 1 mps 735 mmHg 92%
    23:00 +16°C° 0 mm 1 mps 735 mmHg 92%

    23 May, Thursday

    Time Temperature Precipitation Wind Pressure Humidity
    00:00 +15°C° 0 mm 1 mps 735 mmHg 93%
    01:00 +15°C° 0 mm 1 mps 735 mmHg 94%
    02:00 +15°C° 0 mm 1 mps 735 mmHg 94%
    03:00 +15°C° 0 mm 1 mps 735 mmHg 95%
    04:00 +15°C° 0 mm 1 mps 735 mmHg 95%
    05:00 +15°C° 0 mm 1 mps 735 mmHg 96%
    06:00 +15°C° 0 mm 2 mps 735 mmHg 95%
    07:00 +15°C° 0 mm 2 mps 735 mmHg 94%
    08:00 +14°C° 0 mm 3 mps 735 mmHg 93%
    09:00 +14°C° 0.1 mm 3 mps 735 mmHg 93%
    10:00 +14°C° 0.1 mm 3 mps 736 mmHg 92%
    11:00 +13°C° 0.1 mm 3 mps 736 mmHg 91%
    12:00 +14°C° 0 mm 3 mps 736 mmHg 87%
    13:00 +14°C° 0 mm 3 mps 736 mmHg 84%
    14:00 +16°C° 0 mm 2 mps 736 mmHg 80%
    15:00 +17°C° 0 mm 2 mps 736 mmHg 76%
    16:00 +18°C° 0 mm 2 mps 736 mmHg 71%
    17:00 +18°C° 0 mm 2 mps 736 mmHg 67%
    18:00 +17°C° 0 mm 2 mps 737 mmHg 70%
    19:00 +16°C° 0 mm 2 mps 737 mmHg 73%
    20:00 +14°C° 0 mm 3 mps 737 mmHg 76%
    21:00 +12°C° 0 mm 3 mps 737 mmHg 74%
    22:00 +11°C° 0 mm 3 mps 738 mmHg 72%
    23:00 +9°C° 0 mm 3 mps 738 mmHg 70%

    24 May, Friday

    Time Temperature Precipitation Wind Pressure Humidity
    00:00 +8°C° 0 mm 3 mps 738 mmHg 71%
    01:00 +8°C° 0 mm 3 mps 738 mmHg 72%
    02:00 +7°C° 0 mm 2 mps 738 mmHg 73%
    03:00 +7°C° 0 mm 3 mps 738 mmHg 74%
    04:00 +7°C° 0 mm 3 mps 738 mmHg 75%
    05:00 +8°C° 0 mm 3 mps 738 mmHg 76%
    06:00 +9°C° 0 mm 3 mps 738 mmHg 74%
    07:00 +10°C° 0 mm 3 mps 738 mmHg 71%
    08:00 +11°C° 0 mm 3 mps 738 mmHg 69%
    09:00 +12°C° 0 mm 3 mps 737 mmHg 68%
    10:00 +12°C° 0 mm 3 mps 737 mmHg 68%
    11:00 +13°C° 0 mm 4 mps 737 mmHg 67%
    12:00 +13°C° 0 mm 3 mps 736 mmHg 69%
    13:00 +13°C° 0 mm 3 mps 736 mmHg 70%
    14:00 +14°C° 0 mm 3 mps 736 mmHg 71%
    15:00 +15°C° 0 mm 2 mps 735 mmHg 74%
    16:00 +15°C° 0 mm 2 mps 735 mmHg 77%
    17:00 +16°C° 0 mm 2 mps 735 mmHg 80%
    18:00 +15°C° 0.1 mm 2 mps 735 mmHg 85%
    19:00 +14°C° 0.1 mm 1 mps 734 mmHg 89%
    20:00 +14°C° 0.1 mm 1 mps 734 mmHg 94%
    21:00 +13°C° 0.1 mm 1 mps 734 mmHg 95%
    22:00 +13°C° 0.1 mm 2 mps 734 mmHg 96%
    23:00 +12°C° 0.1 mm 2 mps 734 mmHg 97%
    Show more